COSMOS 2557 (706K)

Last updated on Sat Sep 19 2026 00:02:49 GMT+0000 (Coordinated Universal Time)

1 52984U 22075A 26261.02242999 -.00000043 00000+0 00000+0 0 9994 2 52984 64.2385 311.2102 0012669 269.8938 90.0301 2.13102259 32695
UTC large
Height (km)
Speed (km/s)
/
Latitude / Longitude
Inclination (degrees)
Orbital Period (minutes)
Azimuth
Elevation
Range (km)
Doppler Factor

Next 0 passes for location: London (51.5072 / 0.1276)

No passes found over London.
COSMOS 2557 (706K)